Location: Ahstedt
(52.2048°N, 10.1060°E)
Time: 22:48:39
(UTC+00:00)

Cosmos 540 Rocket - Pass Details

Date: 14 April 2026
Orbit: 734 x 748 km, 74.1° (Epoch: 15 May)

Event Time Altitude Azimuth Distance (km) Brightness Sun altitude
Rises 01:55:38 0° 147° (SSE) 3,172 6.5 -20.0°
Reaches altitude 10° 01:59:07 10° 122° (ESE) 2,258 6.0 -19.6°
Maximum altitude 02:01:36 14° 93° (E) 2,015 6.2 -19.4°
Drops below altitude 10° 02:04:06 10° 63° (ENE) 2,270 7.0 -19.1°
Sets 02:07:36 0° 39° (NE) 3,203 8.4 -18.7°
